N55WG NLWW-NSFA

Flight info

Callsign N55WG
Flight time 0h 39m
Altitude 37000
Route HOI B577 OVLAD DCT UVUTI UVUTI2B
Aircraft C750/M-SBDE3FGHRWXY/S

Departure

Time 2026-04-23 12:26
Airport Hihifo Airport (NLWW)

Arrival

Time 2026-04-23 13:06
Airport Faleolo International Airport (NSFA)
Time Latitude Longitude Altitude Speed Heading
2026-04-23 12:14 -13.24057 -176.19591 89 ft 0 kts 269°
2026-04-23 12:23 -13.24056 -176.19592 89 ft 0 kts 323°
2026-04-23 12:23 -13.24042 -176.19603 89 ft 4 kts 324°
2026-04-23 12:23 -13.24007 -176.19629 87 ft 5 kts 333°
2026-04-23 12:24 -13.23998 -176.19618 87 ft 3 kts 89°
2026-04-23 12:24 -13.23982 -176.19592 86 ft 4 kts
2026-04-23 12:24 -13.23981 -176.19591 86 ft 0 kts
2026-04-23 12:24 -13.23980 -176.19591 86 ft 2 kts
2026-04-23 12:25 -13.23897 -176.19592 78 ft 12 kts 359°
2026-04-23 12:25 -13.23832 -176.19636 74 ft 15 kts 275°
2026-04-23 12:25 -13.23831 -176.19772 72 ft 22 kts 270°
2026-04-23 12:25 -13.23819 -176.19911 74 ft 1 kts 261°
2026-04-23 12:26 -13.23830 -176.19894 73 ft 11 kts 94°
2026-04-23 12:26 -13.23830 -176.19472 79 ft 109 kts 90°
2026-04-23 12:26 -13.23852 -176.18414 496 ft 170 kts 99°
2026-04-23 12:26 -13.24193 -176.17236 1812 ft 190 kts 107°
2026-04-23 12:27 -13.24508 -176.15968 3388 ft 195 kts 101°
2026-04-23 12:27 -13.24777 -176.14653 4844 ft 202 kts 104°
2026-04-23 12:27 -13.25096 -176.13280 6244 ft 210 kts 101°
2026-04-23 12:27 -13.25374 -176.11829 7564 ft 220 kts 99°
2026-04-23 12:28 -13.25609 -176.10259 8752 ft 235 kts 98°
2026-04-23 12:28 -13.25857 -176.08589 9878 ft 252 kts 98°
2026-04-23 12:28 -13.26126 -176.06763 10927 ft 270 kts 98°
2026-04-23 12:28 -13.26412 -176.04816 11921 ft 289 kts 98°
2026-04-23 12:29 -13.26720 -176.02721 12857 ft 308 kts 98°
2026-04-23 12:29 -13.27041 -176.00526 13811 ft 325 kts 98°
2026-04-23 12:29 -13.27378 -175.98230 14932 ft 333 kts 98°
2026-04-23 12:29 -13.27721 -175.95880 16102 ft 339 kts 98°
2026-04-23 12:30 -13.28073 -175.93477 17232 ft 344 kts 98°
2026-04-23 12:30 -13.28427 -175.91066 18296 ft 349 kts 98°
2026-04-23 12:30 -13.28796 -175.88542 18549 ft 379 kts 97°
2026-04-23 12:30 -13.29203 -175.85754 18958 ft 402 kts 97°
2026-04-23 12:31 -13.29613 -175.82939 19927 ft 406 kts 97°
2026-04-23 12:31 -13.30031 -175.80092 21175 ft 402 kts 97°
2026-04-23 12:31 -13.30451 -175.77193 21433 ft 425 kts 97°
2026-04-23 12:31 -13.30892 -175.74139 21483 ft 451 kts 97°
2026-04-23 12:32 -13.31363 -175.70905 21981 ft 463 kts 97°
2026-04-23 12:32 -13.31841 -175.67650 22992 ft 463 kts 97°
2026-04-23 12:32 -13.32311 -175.64377 23624 ft 471 kts 97°
2026-04-23 12:32 -13.32799 -175.61020 24413 ft 475 kts 97°
2026-04-23 12:33 -13.33283 -175.57669 25379 ft 475 kts 97°
2026-04-23 12:33 -13.33759 -175.54362 26384 ft 473 kts 97°
2026-04-23 12:33 -13.34244 -175.51030 27438 ft 470 kts 97°
2026-04-23 12:33 -13.34719 -175.47734 27929 ft 480 kts 97°
2026-04-23 12:34 -13.35225 -175.44243 27914 ft 500 kts 97°
2026-04-23 12:34 -13.35740 -175.40669 28015 ft 515 kts 97°
2026-04-23 12:34 -13.36266 -175.37012 28553 ft 521 kts 98°
2026-04-23 12:34 -13.36794 -175.33354 29438 ft 519 kts 97°
2026-04-23 12:35 -13.37321 -175.29681 30034 ft 523 kts 97°
2026-04-23 12:35 -13.37852 -175.25992 30817 ft 523 kts 97°
2026-04-23 12:35 -13.38384 -175.22281 30943 ft 532 kts 97°
2026-04-23 12:35 -13.38920 -175.18544 30979 ft 535 kts 97°
2026-04-23 12:36 -13.40007 -175.10942 30992 ft 536 kts 97°
2026-04-23 12:36 -13.41082 -175.03409 30990 ft 536 kts 97°
2026-04-23 12:37 -13.42154 -174.95879 30990 ft 536 kts 97°
2026-04-23 12:37 -13.43234 -174.88284 30990 ft 536 kts 97°
2026-04-23 12:38 -13.44306 -174.80718 30988 ft 536 kts 97°
2026-04-23 12:38 -13.45374 -174.73167 30990 ft 536 kts 97°
2026-04-23 12:39 -13.47123 -174.65733 30984 ft 537 kts 103°
2026-04-23 12:39 -13.49012 -174.58354 30998 ft 537 kts 104°
2026-04-23 12:40 -13.50908 -174.50949 30997 ft 537 kts 104°
2026-04-23 12:40 -13.52803 -174.43532 31001 ft 536 kts 104°
2026-04-23 12:41 -13.54679 -174.36169 31001 ft 536 kts 104°
2026-04-23 12:41 -13.56573 -174.28735 31002 ft 536 kts 103°
2026-04-23 12:42 -13.58448 -174.21358 31001 ft 537 kts 103°
2026-04-23 12:42 -13.60335 -174.13928 31004 ft 536 kts 104°
2026-04-23 12:43 -13.62207 -174.06545 31003 ft 536 kts 104°
2026-04-23 12:43 -13.64076 -173.99165 31002 ft 537 kts 104°
2026-04-23 12:44 -13.65955 -173.91744 31003 ft 536 kts 103°
2026-04-23 12:44 -13.67830 -173.84317 31007 ft 536 kts 104°
2026-04-23 12:45 -13.69694 -173.76927 31003 ft 537 kts 104°
2026-04-23 12:45 -13.71556 -173.69540 30998 ft 536 kts 104°
2026-04-23 12:46 -13.73423 -173.62114 31002 ft 536 kts 104°
2026-04-23 12:46 -13.75291 -173.54684 31000 ft 536 kts 104°
2026-04-23 12:47 -13.77144 -173.47301 30998 ft 536 kts 104°
2026-04-23 12:47 -13.78998 -173.39897 30993 ft 536 kts 104°
2026-04-23 12:48 -13.79877 -173.36209 31036 ft 521 kts 102°
2026-04-23 12:48 -13.81166 -173.32942 31442 ft 471 kts 121°
2026-04-23 12:48 -13.83026 -173.30359 31698 ft 430 kts 126°
2026-04-23 12:48 -13.84795 -173.27939 30692 ft 423 kts 124°
2026-04-23 12:49 -13.86416 -173.25479 29386 ft 423 kts 120°
2026-04-23 12:49 -13.87885 -173.22844 27970 ft 423 kts 115°
2026-04-23 12:49 -13.89072 -173.20149 26744 ft 418 kts 110°
2026-04-23 12:49 -13.89960 -173.17358 25714 ft 408 kts 103°
2026-04-23 12:50 -13.90499 -173.14539 24705 ft 399 kts 96°
2026-04-23 12:50 -13.90674 -173.11713 23550 ft 394 kts 88°
2026-04-23 12:50 -13.90474 -173.08968 22339 ft 391 kts 80°
2026-04-23 12:50 -13.89897 -173.06285 21187 ft 386 kts 73°
2026-04-23 12:51 -13.88945 -173.03731 20151 ft 378 kts 65°
2026-04-23 12:51 -13.87952 -173.01285 19406 ft 363 kts 76°
2026-04-23 12:51 -13.87816 -172.98798 18737 ft 351 kts 96°
2026-04-23 12:51 -13.88617 -172.96429 17503 ft 360 kts 119°
2026-04-23 12:52 -13.89936 -172.94319 17070 ft 337 kts 122°
2026-04-23 12:52 -13.90963 -172.92296 16924 ft 310 kts 107°
2026-04-23 12:52 -13.91231 -172.90144 16183 ft 304 kts 86°
2026-04-23 12:52 -13.90917 -172.88022 15446 ft 303 kts 78°
2026-04-23 12:53 -13.90442 -172.85928 14801 ft 296 kts 75°
2026-04-23 12:53 -13.89749 -172.83975 14465 ft 282 kts 66°
2026-04-23 12:53 -13.88938 -172.82161 13855 ft 289 kts 73°
2026-04-23 12:53 -13.93680 -172.70181 14209 ft 323 kts 88°
2026-04-23 12:54 -13.93786 -172.67888 15239 ft 333 kts 92°
2026-04-23 12:54 -13.94304 -172.65259 13852 ft 415 kts 113°
2026-04-23 12:54 -13.95870 -172.62839 13618 ft 388 kts 126°
2026-04-23 12:54 -13.97350 -172.60652 10230 ft 399 kts 118°
2026-04-23 12:55 -13.98734 -172.58415 8241 ft 378 kts 120°
2026-04-23 12:55 -13.99747 -172.56244 8186 ft 300 kts 112°
2026-04-23 12:55 -14.00376 -172.54358 8264 ft 251 kts 104°
2026-04-23 12:55 -14.00926 -172.52725 7995 ft 238 kts 107°
2026-04-23 12:56 -14.01312 -172.51108 7709 ft 230 kts 105°
2026-04-23 12:56 -14.01754 -172.49355 6896 ft 285 kts 101°
2026-04-23 12:56 -14.01974 -172.47354 6431 ft 287 kts 89°
2026-04-23 12:56 -14.01503 -172.45331 6042 ft 296 kts 67°
2026-04-23 12:57 -14.00572 -172.43488 5369 ft 272 kts 65°
2026-04-23 12:57 -13.99709 -172.41925 5605 ft 230 kts 63°
2026-04-23 12:57 -13.98872 -172.40562 5299 ft 235 kts 56°
2026-04-23 12:57 -13.97790 -172.39224 4374 ft 256 kts 47°
2026-04-23 12:58 -13.96418 -172.38048 3847 ft 266 kts 38°
2026-04-23 12:58 -13.94933 -172.37010 3494 ft 235 kts 44°
2026-04-23 12:58 -13.93769 -172.35844 3167 ft 241 kts 50°
2026-04-23 12:58 -13.92248 -172.34731 3092 ft 318 kts 12°
2026-04-23 12:59 -13.90202 -172.35300 3377 ft 291 kts 327°
2026-04-23 12:59 -13.88495 -172.36084 3373 ft 254 kts 355°
2026-04-23 12:59 -13.86819 -172.35790 3005 ft 240 kts 31°
2026-04-23 12:59 -13.85635 -172.34689 2705 ft 226 kts 59°
2026-04-23 13:00 -13.85045 -172.33244 2472 ft 214 kts 79°
2026-04-23 13:00 -13.84835 -172.31709 2176 ft 229 kts 88°
2026-04-23 13:00 -13.84742 -172.30040 2130 ft 233 kts 87°
2026-04-23 13:00 -13.84623 -172.28331 1962 ft 241 kts 85°
2026-04-23 13:01 -13.84415 -172.26636 1898 ft 236 kts 82°
2026-04-23 13:01 -13.84121 -172.24994 1710 ft 235 kts 81°
2026-04-23 13:01 -13.83828 -172.23367 1717 ft 226 kts 78°
2026-04-23 13:01 -13.83477 -172.21768 1735 ft 230 kts 82°
2026-04-23 13:02 -13.83322 -172.20136 1801 ft 229 kts 86°
2026-04-23 13:02 -13.83215 -172.18539 1878 ft 223 kts 88°
2026-04-23 13:02 -13.83156 -172.16928 1849 ft 228 kts 90°
2026-04-23 13:02 -13.83166 -172.15294 1905 ft 227 kts 91°
2026-04-23 13:03 -13.83156 -172.13660 1918 ft 229 kts 90°
2026-04-23 13:03 -13.83110 -172.12015 1915 ft 232 kts 90°
2026-04-23 13:03 -13.83109 -172.10307 1648 ft 245 kts 90°
2026-04-23 13:03 -13.83090 -172.08499 1287 ft 259 kts 90°
2026-04-23 13:04 -13.83071 -172.06676 932 ft 249 kts 90°
2026-04-23 13:04 -13.83049 -172.05086 626 ft 192 kts 90°
2026-04-23 13:04 -13.83038 -172.03900 426 ft 145 kts 90°
2026-04-23 13:04 -13.83027 -172.02949 236 ft 130 kts 90°
2026-04-23 13:05 -13.83016 -172.02035 96 ft 129 kts 90°
2026-04-23 13:05 -13.83010 -172.01207 48 ft 94 kts 89°
2026-04-23 13:05 -13.83005 -172.00737 36 ft 56 kts 89°
2026-04-23 13:05 -13.83000 -172.00299 36 ft 58 kts 88°
2026-04-23 13:06 -13.82991 -171.99742 34 ft 3 kts 118°
2026-04-23 13:06 -13.83036 -171.99738 34 ft 10 kts 181°
2026-04-23 13:06 -13.83106 -171.99738 35 ft 7 kts 179°
2026-04-23 13:07 -13.83139 -171.99764 35 ft 6 kts 245°
2026-04-23 13:07 -13.83145 -171.99776 36 ft 1 kts 240°
2026-04-23 13:07 -13.83160 -171.99774 36 ft 3 kts 140°
2026-04-23 13:07 -13.83163 -171.99771 36 ft 0 kts 141°